TIROS 5

Satellite information

Favourite Embed

Satellite Type and Status

PAYLOADIN ORBIT

Key statistics

Satellite TIROS 5 at a glance.

Uptime

22970

Days in orbit

Revolutions

≈ 14.6

Per day

Orbit

LEO

Low Earth Orbit

Inclination

58.1

Latest

Satellite identification and parameters

Extended collection of information and parameters for TIROS 5.

Object identification

Identified? True

Debris? False

Object name: TIROS 5

International designator: 1962-025A

Object number (NORAD): 309

Object ID (CCSDS): 309

Country: UNITED STATES OF AMERICA (US)

Current information (Y/N): Y

RCS size: MEDIUM

Orbital parameters

Period: 98.631 minutes

Inclination: 58.0894 deg

SMA: 7071.36 km

Apoapsis: 827.723 km

Periapsis: 558.727 km

RAAN: 269.4836 deg

Eccentricy: 0.0190201

Argument of periapsis: 67.8968 deg

Mean anomaly: 294.2133 deg

Mean motion: 14.59984744 rev/day

Mean motion (dot): 0.00000863 rev/day2

B* drag term: 0.00017345 1/REarth

Two-line elements (TLE)

Creation date: May 8, 2025, 3:01 a.m.

Reference frame: TEME

Reference center: EARTH

Epoch: May 7, 2025, 5:30 p.m. UTC

TLE line 0: 0 TIROS 5

TLE line 1: 1 00309U 62025A 25127.72926495 .00000863 00000-0 17345-3 0 9998

TLE line 2: 2 00309 58.0894 269.4836 0190201 67.8968 294.2133 14.59984744322605

Live tracking on map

Real-time ground track for satellite TIROS 5.

In-orbit conjunctions

A list of the most updated potential collisions computed for object TIROS 5.

Target Orbit TCA Probability of collision Miss distance Type
CZ-6A DEB LEO 2024-11-23 12:43:47 0.0002952953 715.0 (m) DEBRIS
CZ-6A DEB LEO 2024-11-05 03:42:12 0.002193468 548.0 (m) DEBRIS

Associated space launch

NASA's TIROS (Television & Infra-Red Observation Satellite) program was the first experimental weathersatellite program.

TIROS 5 was lifted into orbit during the mission ‘Thor Delta | Tiros 5’, on board a Thor Delta space rocket.

The launch took place on June 19, 1962, 12:19 p.m. from Space Launch Complex 17A.

For more information about the launch, click the button.

Launch to space Thor Delta | Tiros 5
Thor Delta | Tiros 5

Agency: N/A

Status: Launch Successful

Launch date: June 19, 1962, 12:19 p.m. UTC

Rocket: Thor Delta

Launch pad: Space Launch Complex 17A

Location: Cape Canaveral SFS, FL, USA

...

Latest news about this satellite

There are no fresh news available about this satellite. Check back as we update our databases every day.


Newsletter sign-up

Weekly statistics, charts and insights to help you stay on top of the space industry.